Location: Newark
(33.6333°S, 78.8500°W)
Time: 01:26:54
(UTC+00:00)

Tiros 1 - Pass Details

Date: 23 October 2019
Orbit: 630 x 664 km, 48.4° (Epoch: 14 November)

Event Time Altitude Azimuth Distance (km) Brightness Sun altitude
Rises 21:45:47 0° 226° (SW) 2,945 11.2 21.7°
Reaches altitude 10° 21:48:48 10° 206° (SSW) 2,032 10.1 21.1°
Maximum altitude 21:52:00 18° 163° (SSE) 1,574 9.1 20.4°
Drops below altitude 10° 21:55:10 10° 120° (ESE) 2,024 9.3 19.7°
Sets 21:58:10 0° 100° (E) 2,930 9.9 19.1°
